[[[{"header":{"parameterUnit":"kt","parameterCategory":2,"dx":1,"dy":1,"la1":30.253999710083008,"la2":30.299108505249023,"lo1":-89.0895004272461,"lo2":-89.04439544677734,"nx":28,"ny":28,"refTime":"2022-09-17T21:00:00:Z","depth":0,"parameterNumber":1,"parameterNumberName":"U-component_of_WINDS"},"data":[-8.3712,-8.3865,-8.382,-8.3974,-8.3959,-8.4055,-8.4075,-8.4095,-8.4099,-8.4209,-8.4263,-8.4231,-8.4215,-8.4269,-8.4324,-8.4308,-8.4334,-8.4424,-8.4389,-8.403,-8.3977,-8.3927,-8.3885,-8.4432,-8.4432,-8.4764,-8.4768,-8.477,-8.3457,-8.3444,-8.3513,-8.3546,-8.3604,-8.349,-8.3507,-8.3562,-8.3651,-8.3657,-8.3708,-8.38,-8.3866,-8.3817,-8.3872,-8.3942,-8.3889,-8.396,-8.3952,-8.395,-8.3567,-8.3524,-8.4002,-8.4002,-8.4002,-8.4002,-8.4002,-8.4002,-8.2981,-8.3076,-8.3067,-8.314,-8.3144,-8.3167,-8.3248,-8.3205,-8.327,-8.3321,-8.3251,-8.335,-8.3345,-8.3385,-8.3387,-8.3462,-8.3374,-8.3435,-8.3449,-8.3465,-8.349,-8.3014,-8.3469,-8.3468,-8.3466,-8.3465,-8.3464,0,-8.2616,-8.257,-8.263,-8.2678,-8.2728,-8.276,-8.278,-8.2829,-8.271,-8.2769,-8.2849,-8.2886,-8.296,-8.3028,-8.3068,-8.3054,-8.2936,-8.292,-8.2961,-8.2994,-8.3021,-8.3006,-8.238,-8.2906,-8.2901,-8.2897,-8.2894,-8.2892,-8.2128,-8.2244,-8.2211,-8.226,-8.2258,-8.234,-8.2377,-8.2264,-8.2309,-8.2316,-8.2404,-8.2472,-8.2518,-8.2654,-8.2598,-8.2652,-8.2594,-8.28,-8.2601,-8.2631,-8.2593,-8.2586,-8.2596,-8.2839,-8.2846,-8.2852,-8.2856,0,-8.1858,-8.1776,-8.1939,-8.1893,-8.1885,-8.2012,-8.1971,-8.206,-8.2006,-8.212,-8.214,-8.2055,-8.2134,-8.2044,-8.2116,-8.2066,-8.2273,-8.2217,-8.2274,-8.2256,-8.243,-8.2414,-8.3011,-8.3082,-8.2519,-8.2524,-8.2529,0,-8.1408,-8.1564,-8.1432,-8.153,-8.17,-8.1579,-8.175,-8.1719,-8.171,-8.1799,-8.1651,-8.1737,-8.1607,-8.1681,-8.1607,-8.176,-8.1774,-8.1744,-8.1721,-8.1755,-8.1758,-8.1772,-8.1744,-8.167,-8.1667,-8.1664,-8.1662,0,-8.0989,-8.1101,-8.1262,-8.1273,-8.1236,-8.1315,-8.1303,-8.129,-8.1328,-8.1361,-8.1384,-8.1433,-8.1459,-8.1499,-8.1403,-8.1271,-8.1589,-8.1387,-8.1557,-8.156,-8.1627,-8.1624,-8.218,-8.1658,-8.1657,-8.1656,-8.1655,0,-8.061,-8.0647,-8.0892,-8.0857,-8.089,-8.0996,-8.1034,-8.1103,-8.11,-8.1059,-8.1085,-8.0972,-8.11,-8.0906,-8.1079,-8.0934,-8.0969,-8.0951,-8.0961,-8.0962,-8.0747,-8.1069,-8.1611,-8.1662,-8.0971,-8.0966,-8.096,0,-8.0153,-8.0377,-8.0272,-8.0508,-8.0597,-8.0421,-8.0537,-8.0537,-8.0492,-8.0561,-8.0509,-8.0589,-8.0426,-8.0436,-8.0535,-8.0484,-8.0674,-8.0457,-8.0555,-8.056,-8.0558,-8.1057,-8.1158,-8.1504,-8.0886,-8.0894,-8.09,0,-7.9786,-7.9737,-7.9787,-7.9792,-7.9773,-7.9847,-7.9981,-8.0031,-8.0082,-8.01,-8.0206,-8.0317,-8.0196,-8.0217,-8.0129,-8.0236,-8.0542,-8.0092,-8.0089,-8.0174,-8.0841,-8.0937,-8.0996,-8.046,-8.0469,-8.0476,-8.0841,0,-7.9226,-7.9326,-7.9456,-7.9475,-7.9517,-7.9659,-7.9557,-7.9615,-7.9525,-7.9471,-7.9628,-7.9602,-7.9652,-7.9694,-7.9607,-7.9882,-7.982,-7.9691,-7.9491,-7.9821,-7.9938,-7.9986,-7.9325,-7.9318,-7.9313,-7.9308,0,0,-7.8807,-7.8946,-7.8824,-7.8947,-7.8974,-7.8785,-7.8945,-7.895,-7.8964,-7.8987,-7.8876,-7.9027,-7.901,-7.9209,-7.9304,-7.9326,-7.9365,-7.9252,-7.9665,-7.9706,-7.9743,-7.987,-7.9922,-7.9299,-7.9296,-7.9295,-7.9293,0,-7.8579,-7.8567,-7.8727,-7.8726,-7.8719,-7.8653,-7.8693,-7.8652,-7.8624,-7.8776,-7.8615,-7.8696,-7.882,-7.8822,-7.884,-7.9227,-7.91,-7.9251,-7.9493,-7.9614,-7.9662,-7.9703,-7.9839,-7.989,-7.928,-7.928,-7.9281,0,-7.8196,-7.8166,-7.8232,-7.8285,-7.8278,-7.8374,-7.8141,-7.8253,-7.8322,-7.8106,-7.8258,-7.823,-7.8224,-7.8427,-7.8514,-7.8414,-7.8864,-7.8704,-7.8735,-7.8741,-7.8853,-7.8911,-7.8962,-7.8288,-7.8285,-7.8283,0,0,-7.8013,-7.8104,-7.8032,-7.8228,-7.8235,-7.8138,-7.8178,-7.809,-7.8089,-7.8089,-7.8048,-7.8052,-7.8121,-7.817,-7.8229,-7.8467,-7.8455,-7.8586,-7.8633,-7.8671,-7.8699,-7.8821,-7.8878,-7.8271,-7.8271,-7.827,0,0,-7.7924,-7.7848,-7.7756,-7.797,-7.7975,-7.7915,-7.8038,-7.7924,-7.7966,-7.7938,-7.7794,-7.7789,-7.7976,-7.7953,-7.7813,-7.8156,-7.7961,-7.7992,-7.8162,-7.822,-7.8266,-7.8265,-7.7566,0,0,0,0,0,-7.7635,-7.7857,-7.7775,-7.7795,-7.7859,-7.7962,-7.7969,-7.7855,-7.7719,-7.7819,-7.7767,-7.7627,-7.7848,-7.772,-7.7741,-7.7898,-7.8123,-7.815,-7.8174,-7.8449,-7.8511,-7.8562,0,0,0,0,0,0,-7.7642,-7.7667,-7.7769,-7.7721,-7.7734,-7.7953,-7.7697,-7.7672,-7.7705,-7.7677,-7.7642,-7.7626,-7.753,-7.77,-7.7722,-7.7873,-7.7558,-7.8134,-7.8156,-7.8176,-7.847,-7.852,-7.8564,0,0,0,0,0,-7.7647,-7.7667,-7.7799,-7.7717,-7.7728,-7.763,-7.7688,-7.7665,-7.7688,-7.7606,-7.7585,-7.7599,-7.7538,-7.7548,-7.7712,-7.7866,-7.7542,-7.7551,-7.8148,-7.8166,-7.8181,-7.8495,0,0,0,0,0,0,-7.765,-7.7646,-7.7798,-7.7798,-7.7623,-7.7615,-7.761,-7.7659,-7.7612,-7.7595,-7.7555,-7.7533,-7.7546,-7.7552,-7.7561,-7.787,-7.753,-7.7538,-7.7544,-7.8162,-7.8175,-7.8187,0,0,0,0,0,0,-7.7634,-7.7647,-7.7798,-7.7686,-7.7671,-7.7602,-7.7598,-7.7721,-7.7614,-7.7563,-7.7543,-7.7546,-7.7532,-7.7556,-7.7562,-7.7759,-7.752,-7.7528,-7.7534,-7.7537,-7.8173,-7.8183,0,0,0,0,0,0,-7.7638,-7.7648,-7.7685,-7.7675,-7.7661,-7.7643,-7.7708,-7.778,-7.752,-7.7568,-7.7493,-7.7481,-7.7541,-7.7544,-7.7565,-7.776,-7.7759,-7.752,-7.7526,-7.753,-7.7532,0,0,0,0,0,0,0,-7.764,-7.7597,-7.7804,-7.7665,-7.7652,-7.779,-7.779,-7.779,-7.7517,-7.7506,-7.7496,-7.7486,-7.7473,-7.7482,-7.7491,-7.776,0,0,-7.7519,-7.7523,0,0,0,0,0,0,0,0,-7.7589,-7.7595,-7.7804,-7.7804,-7.7803,-7.779,-7.779,-7.779,-7.7515,-7.7507,-7.7498,-7.749,-7.7475,-7.7483,-7.749,0,0,0,0,0,0,0,0,0,0,0,0,0,0,0,-7.7804,-7.7804,0,-7.779,-7.779,-7.779,-7.7514,-7.7507,-7.75,-7.7493,-7.7477,-7.7483,-7.7489,0,0,0,0,0,0,0,0,0,0,0,0,0,0,0,0,0,0,0,0,0,0,0,0,0,0,0,0,0,0,0,0,0,0,0,0,0,0,0,0,0,0,0,0,0,0,0,0,0,0,0,0,0,0,0,0,0,0,0,0,0,0,0,0,0,0,0,0,0]}],[{"header":{"parameterUnit":"kt","parameterCategory":2,"dx":1,"dy":1,"la1":30.253999710083008,"la2":30.299108505249023,"lo1":-89.0895004272461,"lo2":-89.04439544677734,"nx":28,"ny":28,"refTime":"2022-09-17T21:00:00:Z","depth":0,"parameterNumber":2,"parameterNumberName":"V-component_of_WINDS"},"data":[-0.436,-0.4387,-0.4404,-0.4443,-0.4466,-0.4495,-0.4512,-0.4535,-0.4558,-0.4596,-0.4621,-0.4643,-0.4675,-0.471,-0.4739,-0.4749,-0.476,-0.4754,-0.4766,-0.4774,-0.4776,-0.4778,-0.4773,-0.4756,-0.4756,-0.4756,-0.4756,-0.4756,-0.4357,-0.4379,-0.4405,-0.4443,-0.4465,-0.448,-0.4512,-0.453,-0.4557,-0.4587,-0.4614,-0.465,-0.4682,-0.4717,-0.4751,-0.4764,-0.4774,-0.4772,-0.4772,-0.4776,-0.4785,-0.4779,-0.4762,-0.4762,-0.4762,-0.4762,-0.4762,-0.4762,-0.4355,-0.4371,-0.4405,-0.4435,-0.4459,-0.4485,-0.4504,-0.4531,-0.4558,-0.4596,-0.4614,-0.4646,-0.4681,-0.4734,-0.4757,-0.4782,-0.479,-0.4794,-0.4795,-0.4796,-0.4792,-0.4786,-0.479,-0.479,-0.479,-0.479,-0.479,0,-0.436,-0.4373,-0.4402,-0.4435,-0.4458,-0.4486,-0.4516,-0.4528,-0.4569,-0.459,-0.4623,-0.4645,-0.469,-0.4724,-0.4761,-0.4786,-0.4807,-0.4813,-0.4815,-0.4806,-0.4791,-0.4798,-0.481,-0.4813,-0.4814,-0.4814,-0.4814,-0.4814,-0.4359,-0.4377,-0.4424,-0.4441,-0.4462,-0.449,-0.4511,-0.4546,-0.4567,-0.461,-0.4623,-0.4658,-0.4688,-0.4739,-0.4774,-0.4809,-0.482,-0.4818,-0.4826,-0.4814,-0.4819,-0.4818,-0.4819,-0.4817,-0.4817,-0.4816,-0.4816,0,-0.4356,-0.4389,-0.4424,-0.447,-0.4483,-0.45,-0.454,-0.4559,-0.4586,-0.4616,-0.4625,-0.4668,-0.4701,-0.4737,-0.4784,-0.4802,-0.4829,-0.484,-0.4816,-0.482,-0.4821,-0.482,-0.4823,-0.4825,-0.4843,-0.4843,-0.4843,0,-0.4369,-0.4392,-0.444,-0.4459,-0.4485,-0.4521,-0.4546,-0.4573,-0.4606,-0.463,-0.466,-0.4682,-0.4727,-0.4754,-0.4782,-0.4811,-0.482,-0.4836,-0.4843,-0.4834,-0.4831,-0.4847,-0.4848,-0.486,-0.486,-0.486,-0.486,0,-0.4361,-0.4417,-0.4447,-0.4466,-0.452,-0.4534,-0.4558,-0.4596,-0.4618,-0.4652,-0.4666,-0.4704,-0.4725,-0.4753,-0.4788,-0.4791,-0.4825,-0.4838,-0.4842,-0.4841,-0.4849,-0.4848,-0.484,-0.486,-0.486,-0.486,-0.486,0,-0.4378,-0.4411,-0.4452,-0.4498,-0.4511,-0.4533,-0.4572,-0.4599,-0.4638,-0.4657,-0.4685,-0.4711,-0.4741,-0.475,-0.4792,-0.4786,-0.4804,-0.4823,-0.4824,-0.483,-0.4839,-0.4829,-0.4817,-0.4817,-0.4832,-0.4832,-0.4832,0,-0.4359,-0.4411,-0.4443,-0.4482,-0.4512,-0.4543,-0.4568,-0.4603,-0.463,-0.4659,-0.469,-0.4724,-0.4739,-0.4755,-0.4771,-0.4805,-0.4812,-0.4805,-0.4846,-0.4847,-0.4834,-0.4823,-0.4813,-0.4815,-0.483,-0.483,-0.483,0,-0.435,-0.4418,-0.4424,-0.4446,-0.4499,-0.4526,-0.4554,-0.4596,-0.4613,-0.4651,-0.4676,-0.4726,-0.4738,-0.4766,-0.4793,-0.4808,-0.4808,-0.4821,-0.4822,-0.4816,-0.4833,-0.4821,-0.4822,-0.4823,-0.4823,-0.4824,-0.4828,0,-0.4365,-0.4397,-0.4413,-0.4465,-0.4492,-0.452,-0.4562,-0.4584,-0.4606,-0.4636,-0.4674,-0.4717,-0.4763,-0.4774,-0.4798,-0.482,-0.4823,-0.4837,-0.4851,-0.4844,-0.4846,-0.4847,-0.4843,-0.4843,-0.4844,-0.4844,0,0,-0.4339,-0.4387,-0.4425,-0.4455,-0.448,-0.4516,-0.4542,-0.4571,-0.463,-0.4646,-0.4653,-0.4731,-0.4766,-0.4809,-0.481,-0.483,-0.4837,-0.484,-0.4847,-0.4847,-0.4847,-0.4849,-0.485,-0.4845,-0.4846,-0.4846,-0.4846,0,-0.4353,-0.4387,-0.4414,-0.4445,-0.4493,-0.4524,-0.453,-0.4585,-0.4606,-0.4646,-0.4677,-0.4706,-0.477,-0.4802,-0.4827,-0.4835,-0.4858,-0.4846,-0.4834,-0.4851,-0.485,-0.485,-0.4851,-0.4851,-0.4847,-0.4847,-0.4847,0,-0.4352,-0.4392,-0.441,-0.447,-0.4503,-0.4534,-0.4557,-0.4591,-0.4614,-0.4656,-0.4696,-0.4726,-0.4775,-0.4811,-0.483,-0.4838,-0.4874,-0.4872,-0.487,-0.4873,-0.4891,-0.489,-0.489,-0.49,-0.49,-0.49,0,0,-0.4359,-0.4391,-0.4448,-0.4477,-0.4495,-0.4543,-0.4565,-0.4591,-0.4634,-0.4651,-0.4691,-0.4732,-0.4769,-0.4793,-0.4831,-0.4865,-0.4878,-0.4876,-0.4874,-0.4872,-0.4874,-0.4891,-0.4891,-0.49,-0.49,-0.49,0,0,-0.4364,-0.443,-0.4446,-0.4485,-0.4523,-0.4583,-0.4599,-0.462,-0.4659,-0.4661,-0.4709,-0.4722,-0.4758,-0.4788,-0.4781,-0.4837,-0.4849,-0.4851,-0.4816,-0.4814,-0.4811,-0.4804,-0.4814,0,0,0,0,0,-0.4402,-0.4421,-0.4435,-0.4448,-0.4527,-0.4574,-0.4585,-0.4624,-0.463,-0.4642,-0.4679,-0.4703,-0.4793,-0.4789,-0.4802,-0.4809,-0.4899,-0.4899,-0.4899,-0.4863,-0.486,-0.4857,0,0,0,0,0,0,-0.4408,-0.4423,-0.4435,-0.4494,-0.4512,-0.4574,-0.4594,-0.4605,-0.463,-0.4634,-0.4695,-0.4705,-0.474,-0.4785,-0.4796,-0.4802,-0.481,-0.4899,-0.4899,-0.4899,-0.4862,-0.4859,-0.4857,0,0,0,0,0,-0.4412,-0.4425,-0.4542,-0.4494,-0.451,-0.4566,-0.4593,-0.4603,-0.4624,-0.4682,-0.4693,-0.4651,-0.474,-0.4752,-0.4792,-0.4796,-0.4803,-0.4807,-0.4899,-0.4899,-0.4899,-0.4861,0,0,0,0,0,0,-0.4416,-0.4435,-0.4546,-0.4552,-0.4491,-0.4564,-0.4577,-0.4601,-0.4671,-0.4682,-0.464,-0.4643,-0.4739,-0.4749,-0.4758,-0.4792,-0.4797,-0.4801,-0.4803,-0.4899,-0.4899,-0.4899,0,0,0,0,0,0,-0.4428,-0.4439,-0.4549,-0.4542,-0.4548,-0.4561,-0.4573,-0.4614,-0.4672,-0.4626,-0.4629,-0.4641,-0.4726,-0.4747,-0.4754,-0.4817,-0.4792,-0.4796,-0.4799,-0.48,-0.4899,-0.4899,0,0,0,0,0,0,-0.4433,-0.4444,-0.4541,-0.4546,-0.4551,-0.4624,-0.4599,-0.4678,-0.4664,-0.4622,-0.4664,-0.4664,-0.4723,-0.4732,-0.4751,-0.4811,-0.4815,-0.4792,-0.4795,-0.4797,-0.4798,0,0,0,0,0,0,0,-0.4438,-0.4361,-0.4508,-0.4548,-0.4553,-0.461,-0.4612,-0.4614,-0.4664,-0.4664,-0.4664,-0.4664,-0.477,-0.4774,-0.4779,-0.4805,0,0,-0.4792,-0.4794,0,0,0,0,0,0,0,0,-0.4358,-0.436,-0.4509,-0.451,-0.4511,-0.461,-0.4612,-0.4613,-0.4664,-0.4664,-0.4664,-0.4664,-0.4771,-0.4775,-0.4778,0,0,0,0,0,0,0,0,0,0,0,0,0,0,0,-0.4509,-0.451,0,-0.4611,-0.4612,-0.4613,-0.4664,-0.4664,-0.4664,-0.4664,-0.4772,-0.4775,-0.4778,0,0,0,0,0,0,0,0,0,0,0,0,0,0,0,0,0,0,0,0,0,0,0,0,0,0,0,0,0,0,0,0,0,0,0,0,0,0,0,0,0,0,0,0,0,0,0,0,0,0,0,0,0,0,0,0,0,0,0,0,0,0,0,0,0,0,0,0,0]}]]]